Location: Chequamegon National Forest
(46.1070°N, 90.8420°W)
Time: 20:34:23
(UTC-05:00)

ISS - All Passes

Search period start: 24 July 2014 00:00
Search period end: 03 August 2014 00:00
Orbit: 411 x 419 km, 51.6° (Epoch: 24 July)

Date Brightness Start Highest point End Pass type
(mag) Time Alt. Az. Time Alt. Az. Time Alt. Az.
24 Jul - 01:56:24 10° SSW 01:59:25 32° SE 02:02:27 10° ENE visible
24 Jul - 03:32:45 10° W 03:36:02 52° NNW 03:39:21 10° ENE visible
24 Jul - 05:10:11 10° WNW 05:13:13 30° N 05:16:15 10° ENE daylight
24 Jul - 06:47:07 10° WNW 06:50:25 50° NNE 06:53:42 10° E daylight
24 Jul - 08:23:58 10° WNW 08:27:04 34° SW 08:30:08 10° SSE daylight
25 Jul - 01:08:16 10° S 01:10:48 20° SE 01:13:20 10° E visible
25 Jul - 02:43:52 10° WSW 02:47:13 74° NNW 02:50:36 10° ENE visible
25 Jul - 04:21:14 10° WNW 04:24:18 31° N 04:27:22 10° ENE visible
25 Jul - 05:58:21 10° WNW 06:01:33 39° NNE 06:04:45 10° E daylight
25 Jul - 07:35:05 10° WNW 07:38:23 55° SSW 07:41:41 10° SE daylight
26 Jul - 00:20:48 10° SSE 00:22:16 12° SE 00:23:44 10° ESE night (unlit)
26 Jul - 01:55:08 10° SW 01:58:29 75° SSE 02:01:51 10° ENE visible
26 Jul - 03:32:17 10° W 03:35:25 35° N 03:38:34 10° ENE visible
26 Jul - 05:09:35 10° WNW 05:12:41 33° N 05:15:48 10° ENE daylight
26 Jul - 06:46:18 10° WNW 06:49:41 86° SSW 06:53:03 10° ESE daylight
26 Jul - 08:24:01 10° W 08:25:58 15° SW 08:27:56 10° S daylight
27 Jul - 01:06:35 10° SW 01:09:49 47° SE 01:13:04 10° ENE visible
27 Jul - 02:43:22 10° W 02:46:36 42° NNW 02:49:50 10° ENE visible
27 Jul - 04:20:47 10° WNW 04:23:50 31° N 04:26:53 10° ENE visible
27 Jul - 05:57:36 10° WNW 06:00:58 65° NNE 06:04:18 10° ESE daylight
27 Jul - 07:34:42 10° W 07:37:27 23° SW 07:40:12 10° SSE daylight
28 Jul - 00:18:17 10° SSW 00:21:14 29° SE 00:24:12 10° ENE visible
28 Jul - 01:54:31 10° W 01:57:50 55° NNW 02:01:09 10° ENE visible
28 Jul - 03:31:58 10° WNW 03:35:00 30° N 03:38:02 10° ENE visible
28 Jul - 05:08:56 10° WNW 05:12:13 48° NNE 05:15:29 10° E daylight
28 Jul - 06:45:46 10° WNW 06:48:55 37° SW 06:52:03 10° SSE daylight
28 Jul - 23:30:21 10° S 23:32:44 18° SE 23:35:08 10° E night (unlit)
29 Jul - 01:05:46 10° WSW 01:09:08 79° NNW 01:12:30 10° ENE visible
29 Jul - 02:43:07 10° WNW 02:46:12 32° N 02:49:16 10° ENE visible
29 Jul - 04:20:16 10° WNW 04:23:28 38° NNE 04:26:39 10° E visible
29 Jul - 05:57:00 10° WNW 06:00:20 60° SSW 06:03:39 10° SE daylight
29 Jul - 22:43:13 10° SSE 22:44:19 11° SE 22:45:26 10° ESE night (unlit)
30 Jul - 00:17:11 10° SW 00:20:30 69° SSE 00:23:52 10° ENE visible
30 Jul - 01:54:17 10° W 01:57:26 36° NNW 02:00:35 10° ENE visible
30 Jul - 03:31:36 10° WNW 03:34:42 33° N 03:37:48 10° ENE visible
30 Jul - 05:08:20 10° WNW 05:11:44 88° NNE 05:15:06 10° ESE visible
30 Jul - 06:45:54 10° W 06:48:04 16° SW 06:50:13 10° S daylight
30 Jul - 23:28:46 10° SW 23:31:58 43° SE 23:35:10 10° ENE night (unlit)
31 Jul - 01:05:29 10° W 01:08:43 44° NNW 01:11:58 10° ENE visible
31 Jul - 02:42:55 10° WNW 02:45:57 31° N 02:49:00 10° ENE visible
31 Jul - 04:19:45 10° WNW 04:23:06 61° NNE 04:26:27 10° ESE visible
31 Jul - 05:56:48 10° W 05:59:39 25° SW 06:02:29 10° SSE daylight
31 Jul - 22:40:37 10° SSW 22:43:30 27° SE 22:46:24 10° E night (unlit)
01 Aug - 00:16:45 10° WSW 00:20:04 58° NNW 00:23:24 10° ENE visible
01 Aug - 01:54:11 10° WNW 01:57:14 30° N 02:00:17 10° ENE visible
01 Aug - 03:31:11 10° WNW 03:34:28 46° NNE 03:37:44 10° E visible
01 Aug - 05:08:00 10° WNW 05:11:12 40° SW 05:14:23 10° SE visible
01 Aug - 21:52:52 10° S 21:55:07 17° SE 21:57:23 10° E visible
01 Aug - 23:28:08 10° WSW 23:31:29 84° NNW 23:34:52 10° ENE night (unlit)
02 Aug - 01:05:27 10° WNW 01:08:32 32° N 01:11:38 10° ENE visible
02 Aug - 02:42:38 10° WNW 02:45:49 37° NNE 02:48:59 10° E visible
02 Aug - 04:19:22 10° WNW 04:22:43 65° SSW 04:26:04 10° SE visible
02 Aug - 05:58:09 10° WSW 05:58:53 11° SW 05:59:37 10° SW daylight
02 Aug - 21:06:16 10° SE 21:06:50 10° SE 21:07:23 10° ESE visible
02 Aug - 22:39:40 10° SW 22:42:59 64° SSE 22:46:19 10° ENE visible
